ANZ948 YSSY-YSCB

Flight info

Callsign ANZ948
Flight time N/A
Altitude 16000
Route WOL H65 LEECE
Aircraft A20N/M-SDE2E3FGHIRWXY/LB1

Departure

Time 2026-05-07 22:30
Airport Sydney Kingsford Smith International Airport (YSSY)

Arrival

Time N/A
Airport Canberra Airport (YSCB)
Time Latitude Longitude Altitude Speed Heading
2026-05-07 22:00 -33.93512 151.17686 33 ft 0 kts 97°
2026-05-07 22:12 -33.93512 151.17683 32 ft 2 kts 97°
2026-05-07 22:12 -33.93510 151.17663 32 ft 2 kts 97°
2026-05-07 22:13 -33.93508 151.17642 30 ft 2 kts 97°
2026-05-07 22:13 -33.93505 151.17622 32 ft 3 kts 110°
2026-05-07 22:13 -33.93496 151.17604 32 ft 3 kts 148°
2026-05-07 22:13 -33.93484 151.17598 30 ft 0 kts 175°
2026-05-07 22:14 -33.93485 151.17598 30 ft 0 kts 175°
2026-05-07 22:19 -33.93491 151.17598 29 ft 4 kts 179°
2026-05-07 22:19 -33.93538 151.17601 31 ft 8 kts 173°
2026-05-07 22:20 -33.93592 151.17613 31 ft 8 kts 168°
2026-05-07 22:20 -33.93639 151.17633 32 ft 6 kts 154°
2026-05-07 22:20 -33.93672 151.17657 30 ft 7 kts 144°
2026-05-07 22:20 -33.93713 151.17704 30 ft 9 kts 124°
2026-05-07 22:21 -33.93748 151.17762 29 ft 8 kts 143°
2026-05-07 22:21 -33.93815 151.17779 24 ft 12 kts 187°
2026-05-07 22:21 -33.93899 151.17779 24 ft 12 kts 169°
2026-05-07 22:21 -33.93973 151.17797 27 ft 11 kts 168°
2026-05-07 22:22 -33.94078 151.17825 27 ft 19 kts 168°
2026-05-07 22:22 -33.94231 151.17868 28 ft 26 kts 166°
2026-05-07 22:22 -33.94420 151.17910 27 ft 28 kts 184°
2026-05-07 22:22 -33.94608 151.17905 28 ft 27 kts 167°
2026-05-07 22:23 -33.94786 151.17955 26 ft 26 kts 168°
2026-05-07 22:23 -33.94963 151.17998 26 ft 22 kts 167°
2026-05-07 22:23 -33.95101 151.18033 29 ft 19 kts 168°
2026-05-07 22:23 -33.95191 151.18001 28 ft 14 kts 239°
2026-05-07 22:24 -33.95215 151.17901 27 ft 0 kts 258°
2026-05-07 22:24 -33.95215 151.17900 27 ft 0 kts 258°
2026-05-07 22:25 -33.95233 151.17799 26 ft 22 kts 258°
2026-05-07 22:25 -33.95280 151.17623 24 ft 23 kts 227°
2026-05-07 22:25 -33.95429 151.17602 23 ft 22 kts 169°
2026-05-07 22:25 -33.95580 151.17641 25 ft 24 kts 168°
2026-05-07 22:26 -33.95762 151.17689 27 ft 30 kts 167°
2026-05-07 22:26 -33.95992 151.17747 26 ft 36 kts 168°
2026-05-07 22:26 -33.96251 151.17815 25 ft 35 kts 167°
2026-05-07 22:26 -33.96416 151.17876 26 ft 17 kts 136°
2026-05-07 22:27 -33.96436 151.17919 27 ft 0 kts 91°
2026-05-07 22:28 -33.96436 151.17920 27 ft 0 kts 91°
2026-05-07 22:28 -33.96436 151.17936 27 ft 7 kts 91°
2026-05-07 22:29 -33.96412 151.18038 27 ft 15 kts 39°
2026-05-07 22:29 -33.96358 151.18047 27 ft 0 kts 351°
2026-05-07 22:29 -33.96229 151.18014 26 ft 52 kts 347°
2026-05-07 22:30 -33.95606 151.17851 26 ft 132 kts 347°
2026-05-07 22:30 -33.94571 151.17655 523 ft 157 kts 353°
2026-05-07 22:30 -33.93417 151.17431 1110 ft 183 kts 329°
2026-05-07 22:30 -33.92541 151.16364 1882 ft 182 kts 298°
2026-05-07 22:31 -33.91864 151.15020 2667 ft 195 kts 295°
2026-05-07 22:31 -33.91627 151.14540 2911 ft 200 kts 295°